Year,Month,Day,Hour,Minute,Value (Times are PST for temperature in C)
2016,01,22,00,00,7.80
2016,01,22,00,01,7.70
2016,01,22,00,02,7.70
2016,01,22,00,03,7.70
2016,01,22,00,04,7.70
2016,01,22,00,05,7.70
2016,01,22,00,06,7.70
2016,01,22,00,07,7.70
2016,01,22,00,08,7.70
2016,01,22,00,09,7.70
2016,01,22,00,10,7.70
2016,01,22,00,11,7.70
2016,01,22,00,12,7.70
2016,01,22,00,13,7.70
2016,01,22,00,14,7.70
2016,01,22,00,15,7.70
2016,01,22,00,16,7.70
2016,01,22,00,17,7.70
2016,01,22,00,18,7.70
2016,01,22,00,19,7.70
2016,01,22,00,20,7.70
2016,01,22,00,21,7.70
2016,01,22,00,22,7.70
2016,01,22,00,23,7.70
2016,01,22,00,24,7.70
2016,01,22,00,25,7.70
2016,01,22,00,26,7.70
2016,01,22,00,27,7.70
2016,01,22,00,28,7.70
2016,01,22,00,29,7.70
2016,01,22,00,30,7.70
2016,01,22,00,31,7.70
2016,01,22,00,32,7.70
2016,01,22,00,33,7.70
2016,01,22,00,34,7.70
2016,01,22,00,35,7.70
2016,01,22,00,36,7.70
2016,01,22,00,37,7.70
2016,01,22,00,38,7.70
2016,01,22,00,39,7.70
2016,01,22,00,40,7.70
2016,01,22,00,41,7.70
2016,01,22,00,42,7.70
2016,01,22,00,43,7.70
2016,01,22,00,44,7.70
2016,01,22,00,45,7.70
2016,01,22,00,46,7.70
2016,01,22,00,47,7.70
2016,01,22,00,48,7.70
2016,01,22,00,49,7.70
2016,01,22,00,50,7.70
2016,01,22,00,51,7.70
2016,01,22,00,52,7.70
2016,01,22,00,53,7.70
2016,01,22,00,54,7.70
2016,01,22,00,55,7.70
2016,01,22,00,56,7.70
2016,01,22,00,57,7.70
2016,01,22,00,58,7.70
2016,01,22,00,59,7.70
2016,01,22,01,00,7.70
2016,01,22,01,01,7.70
2016,01,22,01,02,7.70
2016,01,22,01,03,7.70
2016,01,22,01,04,7.70
2016,01,22,01,05,7.70
2016,01,22,01,06,7.70
2016,01,22,01,07,7.70
2016,01,22,01,08,7.70
2016,01,22,01,09,7.70
2016,01,22,01,10,7.70
2016,01,22,01,11,7.70
2016,01,22,01,12,7.70
2016,01,22,01,13,7.70
2016,01,22,01,14,7.70
2016,01,22,01,15,7.70
2016,01,22,01,16,7.70
2016,01,22,01,17,7.70
2016,01,22,01,18,7.80
2016,01,22,01,19,7.80
2016,01,22,01,20,7.80
2016,01,22,01,21,7.80
2016,01,22,01,22,7.80
2016,01,22,01,23,7.80
2016,01,22,01,24,7.80
2016,01,22,01,25,7.80
2016,01,22,01,26,7.80
2016,01,22,01,27,7.90
2016,01,22,01,28,7.90
2016,01,22,01,29,7.90
2016,01,22,01,30,7.90
2016,01,22,01,31,7.90
2016,01,22,01,32,8.00
2016,01,22,01,33,8.00
2016,01,22,01,34,8.10
2016,01,22,01,35,8.10
2016,01,22,01,36,8.10
2016,01,22,01,37,8.10
2016,01,22,01,38,8.10
2016,01,22,01,39,8.10
2016,01,22,01,40,8.10
2016,01,22,01,41,8.20
2016,01,22,01,42,8.20
2016,01,22,01,43,8.20
2016,01,22,01,44,8.20
2016,01,22,01,45,8.20
2016,01,22,01,46,8.20
2016,01,22,01,47,8.20
2016,01,22,01,48,8.30
2016,01,22,01,49,8.30
2016,01,22,01,50,8.30
2016,01,22,01,51,8.30
2016,01,22,01,52,8.30
2016,01,22,01,53,8.30
2016,01,22,01,54,8.30
2016,01,22,01,55,8.30
2016,01,22,01,56,8.30
2016,01,22,01,57,8.30
2016,01,22,01,58,8.30
2016,01,22,01,59,8.30
2016,01,22,02,00,8.40
2016,01,22,02,01,8.40
2016,01,22,02,02,8.40
2016,01,22,02,03,8.40
2016,01,22,02,04,8.40
2016,01,22,02,05,8.40
2016,01,22,02,06,8.40
2016,01,22,02,07,8.40
2016,01,22,02,08,8.40
2016,01,22,02,09,8.40
2016,01,22,02,10,8.40
2016,01,22,02,11,8.40
2016,01,22,02,12,8.40
2016,01,22,02,13,8.50
2016,01,22,02,14,8.50
2016,01,22,02,15,8.50
2016,01,22,02,16,8.50
2016,01,22,02,17,8.50
2016,01,22,02,18,8.50
2016,01,22,02,19,8.60
2016,01,22,02,20,8.60
2016,01,22,02,21,8.60
2016,01,22,02,22,8.60
2016,01,22,02,23,8.60
2016,01,22,02,24,8.60
2016,01,22,02,25,8.60
2016,01,22,02,26,8.60
2016,01,22,02,27,8.60
2016,01,22,02,28,8.60
2016,01,22,02,29,8.60
2016,01,22,02,30,8.70
2016,01,22,02,31,8.70
2016,01,22,02,32,8.70
2016,01,22,02,33,8.70
2016,01,22,02,34,8.70
2016,01,22,02,35,8.70
2016,01,22,02,36,8.70
2016,01,22,02,37,8.70
2016,01,22,02,38,8.70
2016,01,22,02,39,8.70
2016,01,22,02,40,8.70
2016,01,22,02,41,8.70
2016,01,22,02,42,8.70
2016,01,22,02,43,8.70
2016,01,22,02,44,8.70
2016,01,22,02,45,8.70
2016,01,22,02,46,8.70
2016,01,22,02,47,8.70
2016,01,22,02,48,8.70
2016,01,22,02,49,8.70
2016,01,22,02,50,8.70
2016,01,22,02,51,8.70
2016,01,22,02,52,8.70
2016,01,22,02,53,8.70
2016,01,22,02,54,8.70
2016,01,22,02,55,8.70
2016,01,22,02,56,8.70
2016,01,22,02,57,8.70
2016,01,22,02,58,8.70
2016,01,22,02,59,8.60
2016,01,22,03,00,8.60
2016,01,22,03,01,8.60
2016,01,22,03,02,8.50
2016,01,22,03,03,8.50
2016,01,22,03,04,8.40
2016,01,22,03,05,8.30
2016,01,22,03,06,8.30
2016,01,22,03,07,8.30
2016,01,22,03,08,8.30
2016,01,22,03,09,8.20
2016,01,22,03,10,8.20
2016,01,22,03,11,8.20
2016,01,22,03,12,8.20
2016,01,22,03,13,8.10
2016,01,22,03,14,8.10
2016,01,22,03,15,8.10
2016,01,22,03,16,8.00
2016,01,22,03,17,8.00
2016,01,22,03,18,8.00
2016,01,22,03,19,8.00
2016,01,22,03,20,8.00
2016,01,22,03,21,8.00
2016,01,22,03,22,8.00
2016,01,22,03,23,8.00
2016,01,22,03,24,8.00
2016,01,22,03,25,8.00
2016,01,22,03,26,8.10
2016,01,22,03,27,8.10
2016,01,22,03,28,8.10
2016,01,22,03,29,8.10
2016,01,22,03,30,8.10
2016,01,22,03,31,8.10
2016,01,22,03,32,8.10
2016,01,22,03,33,8.10
2016,01,22,03,34,8.10
2016,01,22,03,35,8.10
2016,01,22,03,36,8.10
2016,01,22,03,37,8.10
2016,01,22,03,38,8.00
2016,01,22,03,39,8.00
2016,01,22,03,40,8.00
2016,01,22,03,41,8.00
2016,01,22,03,42,8.00
2016,01,22,03,43,8.00
2016,01,22,03,44,7.90
2016,01,22,03,45,7.90
2016,01,22,03,46,7.90
2016,01,22,03,47,7.90
2016,01,22,03,48,7.90
2016,01,22,03,49,7.80
2016,01,22,03,50,7.80
2016,01,22,03,51,7.80
2016,01,22,03,52,7.80
2016,01,22,03,53,7.70
2016,01,22,03,54,7.70
2016,01,22,03,55,7.70
2016,01,22,03,56,7.70
2016,01,22,03,57,7.60
2016,01,22,03,58,7.60
2016,01,22,03,59,7.60
2016,01,22,04,00,7.50
2016,01,22,04,01,7.50
2016,01,22,04,02,7.50
2016,01,22,04,03,7.50
2016,01,22,04,04,7.40
2016,01,22,04,05,7.40
2016,01,22,04,06,7.40
2016,01,22,04,07,7.40
2016,01,22,04,08,7.40
2016,01,22,04,09,7.40
2016,01,22,04,10,7.40
2016,01,22,04,11,7.40
2016,01,22,04,12,7.30
2016,01,22,04,13,7.30
2016,01,22,04,14,7.30
2016,01,22,04,15,7.30
2016,01,22,04,16,7.30
2016,01,22,04,17,7.30
2016,01,22,04,18,7.20
2016,01,22,04,19,7.20
2016,01,22,04,20,7.20
2016,01,22,04,21,7.20
2016,01,22,04,22,7.20
2016,01,22,04,23,7.20
2016,01,22,04,24,7.20
2016,01,22,04,25,7.20
2016,01,22,04,26,7.20
2016,01,22,04,27,7.20
2016,01,22,04,28,7.20
2016,01,22,04,29,7.20
2016,01,22,04,30,7.20
2016,01,22,04,31,7.20
2016,01,22,04,32,7.10
2016,01,22,04,33,7.10
2016,01,22,04,34,7.10
2016,01,22,04,35,7.10
2016,01,22,04,36,7.10
2016,01,22,04,37,7.10
2016,01,22,04,38,7.10
2016,01,22,04,39,7.10
2016,01,22,04,40,7.00
2016,01,22,04,41,7.00
2016,01,22,04,42,7.00
2016,01,22,04,43,7.00
2016,01,22,04,44,7.00
2016,01,22,04,45,7.00
2016,01,22,04,46,7.00
2016,01,22,04,47,7.00
2016,01,22,04,48,7.00
2016,01,22,04,49,7.00
2016,01,22,04,50,6.90
2016,01,22,04,51,6.90
2016,01,22,04,52,6.90
2016,01,22,04,53,6.90
2016,01,22,04,54,6.90
2016,01,22,04,55,6.90
2016,01,22,04,56,6.90
2016,01,22,04,57,6.80
2016,01,22,04,58,6.90
2016,01,22,04,59,6.80
2016,01,22,05,00,6.80
2016,01,22,05,01,6.80
2016,01,22,05,02,6.80
2016,01,22,05,03,6.80
2016,01,22,05,04,6.80
2016,01,22,05,05,6.80
2016,01,22,05,06,6.80
2016,01,22,05,07,6.80
2016,01,22,05,08,6.80
2016,01,22,05,09,6.80
2016,01,22,05,10,6.80
2016,01,22,05,11,6.80
2016,01,22,05,12,6.80
2016,01,22,05,13,6.80
2016,01,22,05,14,6.80
2016,01,22,05,15,6.80
2016,01,22,05,16,6.80
2016,01,22,05,17,6.80
2016,01,22,05,18,6.80
2016,01,22,05,19,6.70
2016,01,22,05,20,6.70
2016,01,22,05,21,6.70
2016,01,22,05,22,6.70
2016,01,22,05,23,6.80
2016,01,22,05,24,6.70
2016,01,22,05,25,6.70
2016,01,22,05,26,6.70
2016,01,22,05,27,6.70
2016,01,22,05,28,6.70
2016,01,22,05,29,6.70
2016,01,22,05,30,6.70
2016,01,22,05,31,6.70
2016,01,22,05,32,6.70
2016,01,22,05,33,6.70
2016,01,22,05,34,6.70
2016,01,22,05,35,6.70
2016,01,22,05,36,6.70
2016,01,22,05,37,6.70
2016,01,22,05,38,6.70
2016,01,22,05,39,6.70
2016,01,22,13,51,9.20
2016,01,22,13,52,9.20
2016,01,22,13,53,9.20
2016,01,22,13,54,9.20
2016,01,22,13,55,9.20
2016,01,22,13,56,9.20
2016,01,22,13,57,9.20
2016,01,22,13,58,9.20
2016,01,22,13,59,9.20
2016,01,22,14,00,9.20
2016,01,22,14,01,9.20
2016,01,22,16,50,8.70
2016,01,22,16,51,8.80
2016,01,22,16,52,8.80
2016,01,22,16,53,8.80
2016,01,22,16,54,8.80
2016,01,22,16,55,8.80
2016,01,22,16,56,8.80
2016,01,22,16,57,8.70
2016,01,22,16,58,8.70
2016,01,22,16,59,8.70
2016,01,22,17,00,8.80
2016,01,22,17,01,8.80
2016,01,22,17,02,8.80
2016,01,22,17,03,8.80
2016,01,22,17,04,8.80
2016,01,22,17,05,8.80
2016,01,22,17,06,8.80
2016,01,22,17,07,8.80
2016,01,22,17,08,8.80
2016,01,22,17,09,8.80
2016,01,22,17,10,8.90
2016,01,22,17,11,8.90
2016,01,22,17,12,8.90
2016,01,22,17,13,8.90
2016,01,22,17,14,8.90
2016,01,22,17,15,8.90
2016,01,22,17,16,8.90
2016,01,22,17,17,8.90
2016,01,22,17,18,8.90
2016,01,22,17,19,8.90
2016,01,22,17,20,8.90
2016,01,22,17,21,8.90
2016,01,22,17,22,8.90
2016,01,22,17,23,8.90
2016,01,22,17,24,8.90
2016,01,22,17,25,8.90
2016,01,22,17,26,8.90
2016,01,22,17,27,8.90
2016,01,22,17,28,8.90
2016,01,22,17,29,8.90
2016,01,22,17,30,8.90
2016,01,22,17,31,8.90
2016,01,22,17,32,8.90
2016,01,22,17,33,8.90
2016,01,22,17,34,8.80
2016,01,22,17,35,8.80
2016,01,22,17,36,8.80
2016,01,22,17,37,8.80
2016,01,22,17,38,8.80
2016,01,22,17,39,8.80
2016,01,22,17,40,8.80
2016,01,22,17,41,8.80
2016,01,22,17,42,8.80
2016,01,22,17,43,8.80
2016,01,22,17,44,8.70
2016,01,22,17,45,8.70
2016,01,22,17,46,8.70
2016,01,22,17,47,8.70
2016,01,22,17,48,8.70
2016,01,22,17,49,8.70
2016,01,22,17,50,8.70
2016,01,22,17,51,8.70
2016,01,22,17,52,8.70
2016,01,22,17,53,8.70
2016,01,22,17,54,8.60
2016,01,22,17,55,8.60
2016,01,22,17,56,8.60
2016,01,22,17,57,8.60
2016,01,22,17,58,8.60
2016,01,22,17,59,8.70
2016,01,22,18,00,8.70
2016,01,22,18,01,8.70
2016,01,22,18,02,8.70
2016,01,22,18,03,8.70
2016,01,22,18,04,8.70
2016,01,22,18,05,8.70
2016,01,22,18,06,8.70
2016,01,22,18,07,8.70
2016,01,22,18,08,8.70
2016,01,22,18,09,8.70
2016,01,22,18,10,8.70
2016,01,22,18,11,8.70
2016,01,22,18,12,8.70
2016,01,22,18,13,8.70
2016,01,22,18,14,8.70
2016,01,22,18,15,8.70
2016,01,22,18,16,8.70
2016,01,22,18,17,8.70
2016,01,22,18,18,8.70
2016,01,22,18,19,8.70
2016,01,22,18,20,8.70
2016,01,22,18,21,8.70
2016,01,22,18,22,8.70
2016,01,22,18,23,8.70
2016,01,22,18,24,8.70
2016,01,22,18,25,8.70
2016,01,22,18,26,8.60
2016,01,22,18,27,8.60
2016,01,22,18,28,8.60
2016,01,22,18,29,8.60
2016,01,22,18,30,8.60
2016,01,22,18,31,8.50
2016,01,22,18,32,8.50
2016,01,22,18,33,8.50
2016,01,22,18,34,8.40
2016,01,22,18,35,8.40
2016,01,22,18,36,8.40
2016,01,22,18,37,8.40
2016,01,22,18,38,8.30
2016,01,22,18,39,8.30
2016,01,22,18,40,8.30
2016,01,22,18,41,8.30
2016,01,22,18,42,8.20
2016,01,22,18,43,8.20
2016,01,22,18,44,8.20
2016,01,22,18,45,8.20
2016,01,22,18,46,8.20
2016,01,22,18,47,8.20
2016,01,22,18,48,8.10
2016,01,22,18,49,8.10
2016,01,22,18,50,8.10
2016,01,22,18,51,8.00
2016,01,22,18,52,8.00
2016,01,22,18,53,8.00
2016,01,22,18,54,8.00
2016,01,22,18,55,8.00
2016,01,22,18,56,8.00
2016,01,22,18,57,8.00
2016,01,22,18,58,7.90
2016,01,22,18,59,7.90
2016,01,22,19,00,7.90
2016,01,22,19,01,7.90
2016,01,22,19,02,7.90
2016,01,22,19,03,7.90
2016,01,22,19,04,7.90
2016,01,22,19,05,7.90
2016,01,22,19,06,7.80
2016,01,22,19,07,7.80
2016,01,22,19,08,7.80
2016,01,22,19,09,7.80
2016,01,22,19,10,7.80
2016,01,22,19,11,7.80
2016,01,22,19,12,7.80
2016,01,22,19,13,7.80
2016,01,22,19,14,7.80
2016,01,22,19,15,7.80
2016,01,22,19,16,7.80
2016,01,22,19,17,7.80
2016,01,22,19,18,7.80
2016,01,22,19,19,7.80
2016,01,22,19,20,7.80
2016,01,22,19,21,7.80
2016,01,22,19,22,7.80
2016,01,22,19,23,7.80
2016,01,22,19,24,7.80
2016,01,22,19,25,7.80
2016,01,22,19,26,7.80
2016,01,22,19,27,7.80
2016,01,22,19,28,7.70
2016,01,22,19,29,7.70
2016,01,22,19,30,7.70
2016,01,22,19,31,7.70
2016,01,22,19,32,7.70
2016,01,22,19,33,7.70
2016,01,22,19,34,7.70
2016,01,22,19,35,7.70
2016,01,22,19,36,7.70
2016,01,22,19,37,7.70
2016,01,22,19,38,7.70
2016,01,22,19,39,7.70
2016,01,22,19,40,7.70
2016,01,22,19,41,7.70
2016,01,22,19,42,7.70
2016,01,22,19,43,7.60
2016,01,22,19,44,7.60
2016,01,22,19,45,7.60
2016,01,22,19,46,7.60
2016,01,22,19,47,7.60
2016,01,22,19,48,7.60
2016,01,22,19,49,7.50
2016,01,22,19,50,7.50
2016,01,22,19,51,7.50
2016,01,22,19,52,7.40
2016,01,22,19,53,7.40
2016,01,22,19,54,7.40
2016,01,22,19,55,7.40
2016,01,22,19,56,7.40
2016,01,22,19,57,7.40
2016,01,22,19,58,7.30
2016,01,22,19,59,7.30
2016,01,22,20,00,7.30
2016,01,22,20,01,7.30
2016,01,22,20,02,7.30
2016,01,22,20,03,7.30
2016,01,22,20,04,7.30
2016,01,22,20,05,7.30
2016,01,22,20,06,7.20
2016,01,22,20,07,7.30
2016,01,22,20,08,7.30
2016,01,22,20,09,7.30
2016,01,22,20,10,7.20
2016,01,22,20,11,7.20
2016,01,22,20,12,7.20
2016,01,22,20,13,7.20
2016,01,22,20,14,7.20
2016,01,22,20,15,7.20
2016,01,22,20,16,7.20
2016,01,22,20,17,7.20
2016,01,22,20,18,7.20
2016,01,22,20,19,7.30
2016,01,22,20,20,7.30
2016,01,22,20,21,7.30
2016,01,22,20,22,7.30
2016,01,22,20,23,7.30
2016,01,22,20,24,7.30
2016,01,22,20,25,7.30
2016,01,22,20,26,7.30
2016,01,22,20,27,7.20
2016,01,22,20,28,7.20
2016,01,22,20,29,7.20
2016,01,22,20,30,7.20
2016,01,22,20,31,7.20
2016,01,22,20,32,7.20
2016,01,22,20,33,7.10
2016,01,22,20,34,7.10
2016,01,22,20,35,7.10
2016,01,22,20,36,7.10
2016,01,22,20,37,7.10
2016,01,22,20,38,7.10
2016,01,22,20,39,7.10
2016,01,22,20,40,7.10
2016,01,22,20,41,7.10
2016,01,22,20,42,7.10
2016,01,22,20,43,7.10
2016,01,22,20,44,7.10
2016,01,22,20,45,7.00
2016,01,22,20,46,7.00
2016,01,22,20,47,7.00
2016,01,22,20,48,6.90
2016,01,22,20,49,6.90
2016,01,22,20,50,6.90
2016,01,22,20,51,6.90
2016,01,22,20,52,6.90
2016,01,22,20,53,6.90
2016,01,22,20,54,6.90
2016,01,22,20,55,6.80
2016,01,22,20,56,6.90
2016,01,22,20,57,6.90
2016,01,22,20,58,6.80
2016,01,22,20,59,6.90
2016,01,22,21,00,6.80
2016,01,22,21,01,6.80
2016,01,22,21,02,6.80
2016,01,22,21,03,6.80
2016,01,22,21,04,6.80
2016,01,22,21,05,6.90
2016,01,22,21,06,6.90
2016,01,22,21,07,6.90
2016,01,22,21,08,6.90
2016,01,22,21,09,6.90
2016,01,22,21,10,6.90
2016,01,22,21,11,6.90
2016,01,22,21,12,6.90
2016,01,22,21,13,6.90
2016,01,22,21,14,6.90
2016,01,22,21,15,6.90
2016,01,22,21,16,6.90
2016,01,22,21,17,6.90
2016,01,22,21,18,6.90
2016,01,22,21,19,6.90
2016,01,22,21,20,6.90
2016,01,22,21,21,6.90
2016,01,22,21,22,6.90
2016,01,22,21,23,6.90
2016,01,22,21,24,6.90
2016,01,22,21,25,6.90
2016,01,22,21,26,6.90
2016,01,22,21,27,6.90
2016,01,22,21,28,6.90
2016,01,22,21,29,6.90
2016,01,22,21,30,6.80
2016,01,22,21,31,6.80
2016,01,22,21,32,6.80
2016,01,22,21,33,6.80
2016,01,22,21,34,6.80
2016,01,22,21,35,6.90
2016,01,22,21,36,6.90
2016,01,22,21,37,6.90
2016,01,22,21,38,6.90
2016,01,22,21,39,6.90
2016,01,22,21,40,6.90
2016,01,22,21,41,6.90
2016,01,22,21,42,6.90
2016,01,22,21,43,6.80
2016,01,22,21,44,6.90
2016,01,22,21,45,6.90
2016,01,22,21,46,6.90
2016,01,22,21,47,6.90
2016,01,22,21,48,6.90
2016,01,22,21,49,6.90
2016,01,22,21,50,6.90
2016,01,22,21,51,6.90
2016,01,22,21,52,6.90
2016,01,22,21,53,6.90
2016,01,22,21,54,6.90
2016,01,22,21,55,6.90
2016,01,22,21,56,6.90
2016,01,22,21,57,6.80
2016,01,22,21,58,6.80
2016,01,22,21,59,6.80
2016,01,22,22,00,6.80
2016,01,22,22,01,6.80
2016,01,22,22,02,6.80
2016,01,22,22,03,6.80
2016,01,22,22,04,6.80
2016,01,22,22,05,6.80
2016,01,22,22,06,6.80
2016,01,22,22,07,6.80
2016,01,22,22,08,6.80
2016,01,22,22,09,6.80
2016,01,22,22,10,6.80
2016,01,22,22,11,6.80
2016,01,22,22,12,6.80
2016,01,22,22,13,6.80
2016,01,22,22,14,6.80
2016,01,22,22,15,6.80
2016,01,22,22,16,6.80
2016,01,22,22,17,6.80
2016,01,22,22,18,6.70
2016,01,22,22,19,6.70
2016,01,22,22,20,6.70
2016,01,22,22,21,6.70
2016,01,22,22,22,6.70
2016,01,22,22,23,6.70
2016,01,22,22,24,6.70
2016,01,22,22,25,6.70
2016,01,22,22,26,6.60
2016,01,22,22,27,6.60
2016,01,22,22,28,6.60
2016,01,22,22,29,6.60
2016,01,22,22,30,6.60
2016,01,22,22,31,6.60
2016,01,22,22,32,6.60
2016,01,22,22,33,6.60
2016,01,22,22,34,6.60
2016,01,22,22,35,6.60
2016,01,22,22,36,6.60
2016,01,22,22,37,6.60
2016,01,22,22,38,6.70
2016,01,22,22,39,6.70
2016,01,22,22,40,6.70
2016,01,22,22,41,6.70
2016,01,22,22,42,6.70
2016,01,22,22,43,6.70
2016,01,22,22,44,6.70
2016,01,22,22,45,6.70
2016,01,22,22,46,6.80
2016,01,22,22,47,6.80
2016,01,22,22,48,6.80
2016,01,22,22,49,6.70
2016,01,22,22,50,6.80
2016,01,22,22,51,6.80
2016,01,22,22,52,6.80
2016,01,22,22,53,6.80
2016,01,22,22,54,6.80
2016,01,22,22,55,6.80
2016,01,22,22,56,6.80
2016,01,22,22,57,6.80
2016,01,22,22,58,6.80
2016,01,22,22,59,6.80
2016,01,22,23,00,6.90
2016,01,22,23,01,6.90
2016,01,22,23,02,6.90
2016,01,22,23,03,6.90
2016,01,22,23,04,6.90
2016,01,22,23,05,6.90
2016,01,22,23,06,7.00
2016,01,22,23,07,7.00
2016,01,22,23,08,7.10
2016,01,22,23,09,7.10
2016,01,22,23,10,7.10
2016,01,22,23,11,7.10
2016,01,22,23,12,7.10
2016,01,22,23,13,7.10
2016,01,22,23,14,7.10
2016,01,22,23,15,7.20
2016,01,22,23,16,7.20
2016,01,22,23,17,7.20
2016,01,22,23,18,7.30
2016,01,22,23,19,7.30
2016,01,22,23,20,7.30
2016,01,22,23,21,7.30
2016,01,22,23,22,7.30
2016,01,22,23,23,7.30
2016,01,22,23,24,7.30
2016,01,22,23,25,7.30
2016,01,22,23,26,7.40
2016,01,22,23,27,7.40
2016,01,22,23,28,7.40
2016,01,22,23,29,7.40
2016,01,22,23,30,7.40
2016,01,22,23,31,7.40
2016,01,22,23,32,7.40
2016,01,22,23,33,7.40
2016,01,22,23,34,7.40
2016,01,22,23,35,7.40
2016,01,22,23,36,7.40
2016,01,22,23,37,7.30
2016,01,22,23,38,7.40
2016,01,22,23,39,7.40
2016,01,22,23,40,7.40
2016,01,22,23,41,7.40
2016,01,22,23,42,7.40
2016,01,22,23,43,7.40
2016,01,22,23,44,7.40
2016,01,22,23,45,7.30
2016,01,22,23,46,7.30
2016,01,22,23,47,7.30
2016,01,22,23,48,7.30
2016,01,22,23,49,7.30
2016,01,22,23,50,7.30
2016,01,22,23,51,7.30
2016,01,22,23,52,7.30
2016,01,22,23,53,7.30
2016,01,22,23,54,7.30
2016,01,22,23,55,7.30
2016,01,22,23,56,7.30
2016,01,22,23,57,7.30
2016,01,22,23,58,7.30
2016,01,22,23,59,7.30
